Weather History for KMGW - March, 2013

Change the Weather History Date:

Sunday, March 31, 2013

  Actual Average Record
Temperature  
Mean Temperature 49 °F 47 °F  
Max Temperature 51 °F 58 °F 79 °F (1986)
Min Temperature 46 °F 37 °F 18 °F (1965)
Degree Days  
Heating Degree Days 16 18  
Month to date heating degree days 781 712  
Since 1 July heating degree days 4472 4601  
Cooling Degree Days 0 0  
Month to date cooling degree days 0 2  
Year to date cooling degree days 0 2  
Moisture  
Dew Point 41 °F    
Average Humidity 61    
Maximum Humidity 86    
Minimum Humidity 36    
Precipitation  
Precipitation 0.14 in 0.13 in 0.90 in (1962)
Month to date precipitation 2.38 3.65  
Year to date precipitation 6.95 9.06  
Sea Level Pressure  
Sea Level Pressure 29.82 in    
Wind  
Wind Speed 4 mph (SSW)    
Max Wind Speed 9 mph    
Max Gust Speed 14 mph    
Visibility 8 miles    
Events Rain    
T = Trace of Precipitation, MM = Missing Value Source: NWS Daily Summary

Daily Weather History Graph

Daily Weather History Graph

Search for Another Location

Airport or City:

Trip Planner

Search our weather history database for the weather conditions in past years. The results will help you decide how hot, cold, wet, or windy it might be!

Date:

Astronomy

Mar. 31, 2013 Rise Set
Actual Time 7:05 AM EDT 7:42 PM EDT
Civil Twilight 6:37 AM EDT 8:10 PM EDT
Nautical Twilight 6:05 AM EDT 8:42 PM EDT
Astronomical Twilight 5:33 AM EDT 9:15 PM EDT
Moon No Moon Rise 9:52 AM EDT (3/31)
Length of Visible Light 13h 32m
Length of Day
12h 37m
Waning Gibbous, 78% of the Moon is Illuminated
Mar 31
Waning Gibbous
Apr 3
Last Quarter
Apr 10
New
Apr 18
First Quarter
Apr 25
Full

Hourly Weather History & Observations

Time (EDT) Temp. Dew Point Humidity Pressure Visibility Wind Dir Wind Speed Gust Speed Precip Events Conditions
12:53 AM 48.9 °F 24.1 °F 38% 30.02 in 10.0 mi South 3.5 mph - N/A   Clear
1:53 AM 48.9 °F 23.0 °F 36% 29.99 in 10.0 mi Calm Calm - N/A   Clear
2:53 AM 48.0 °F 24.1 °F 39% 29.95 in 10.0 mi Calm Calm - N/A   Clear
3:53 AM 48.9 °F 25.0 °F 39% 29.92 in 10.0 mi SE 8.1 mph - N/A   Clear
4:53 AM 48.9 °F 26.1 °F 41% 29.90 in 10.0 mi South 3.5 mph - N/A   Partly Cloudy
5:53 AM 50.0 °F 26.1 °F 39% 29.89 in 10.0 mi SE 8.1 mph - N/A   Scattered Clouds
6:53 AM 50.0 °F 27.0 °F 41% 29.88 in 10.0 mi South 3.5 mph - N/A   Overcast
7:53 AM 48.9 °F 33.1 °F 54% 29.90 in 10.0 mi SSW 5.8 mph - 0.00 in Rain Light Rain
8:53 AM 46.9 °F 41.0 °F 80% 29.89 in 8.0 mi Calm Calm - 0.03 in Rain Light Rain
9:53 AM 46.9 °F 42.1 °F 83% 29.86 in 7.0 mi SE 5.8 mph - 0.05 in Rain Light Rain
10:53 AM 48.0 °F 43.0 °F 83% 29.84 in 10.0 mi Calm Calm - 0.02 in   Overcast
11:01 AM 48.2 °F 42.8 °F 82% 29.82 in 10.0 mi Calm Calm - N/A   Overcast
11:53 AM 50.0 °F 44.1 °F 80% 29.81 in 10.0 mi Variable 3.5 mph - N/A   Overcast
12:19 PM 48.2 °F 44.6 °F 87% 29.79 in 5.0 mi South 6.9 mph - N/A   Haze
12:42 PM 48.2 °F 44.6 °F 87% 29.78 in 2.0 mi Calm Calm - N/A   Overcast
12:50 PM 48.2 °F 44.6 °F 87% 29.78 in 1.5 mi Calm Calm - N/A   Overcast
12:53 PM 48.0 °F 45.0 °F 89% 29.78 in 1.5 mi Calm Calm - N/A   Overcast
1:02 PM 48.2 °F 44.6 °F 87% 29.78 in 2.0 mi SSW 3.5 mph - N/A   Overcast
1:21 PM 48.2 °F 46.4 °F 93% 29.77 in 3.0 mi Calm Calm - N/A   Overcast
1:53 PM 48.0 °F 45.0 °F 89% 29.78 in 9.0 mi SW 4.6 mph - N/A   Overcast
2:53 PM 50.0 °F 46.0 °F 86% 29.77 in 10.0 mi SSW 5.8 mph - N/A   Overcast
3:42 PM 50.0 °F 46.4 °F 87% 29.76 in 10.0 mi SW 4.6 mph - N/A   Overcast
3:53 PM 50.0 °F 46.0 °F 86% 29.76 in 10.0 mi SSW 3.5 mph - N/A   Overcast
4:42 PM 50.0 °F 46.4 °F 87% 29.76 in 7.0 mi SSW 5.8 mph - 0.00 in Rain Light Rain
4:53 PM 50.0 °F 46.0 °F 86% 29.77 in 4.0 mi SW 4.6 mph - 0.01 in Rain Light Rain
5:26 PM 50.0 °F 46.4 °F 87% 29.76 in 5.0 mi Calm Calm - 0.02 in Rain Light Rain
5:53 PM 50.0 °F 46.0 °F 86% 29.77 in 9.0 mi Variable 4.6 mph - 0.02 in Rain Light Rain
5:59 PM 50.0 °F 46.4 °F 87% 29.76 in 9.0 mi Variable 4.6 mph - 0.01 in Rain Light Rain
6:06 PM 50.0 °F 46.4 °F 87% 29.76 in 10.0 mi Variable 4.6 mph - 0.01 in   Overcast
6:53 PM 51.1 °F 46.0 °F 83% 29.78 in 10.0 mi SW 4.6 mph - 0.01 in   Overcast
7:33 PM 50.0 °F 46.4 °F 87% 29.78 in 10.0 mi Variable 3.5 mph - N/A   Overcast
7:53 PM 50.0 °F 45.0 °F 83% 29.79 in 10.0 mi SW 3.5 mph - N/A   Overcast
8:04 PM 50.0 °F 44.6 °F 82% 29.79 in 10.0 mi Variable 3.5 mph - N/A   Overcast
8:22 PM 50.0 °F 44.6 °F 82% 29.79 in 10.0 mi SSW 3.5 mph - N/A   Overcast
8:53 PM 50.0 °F 45.0 °F 83% 29.81 in 10.0 mi SSW 5.8 mph - N/A   Overcast
9:23 PM 50.0 °F 44.6 °F 82% 29.81 in 10.0 mi SW 4.6 mph - N/A   Overcast
9:46 PM 50.0 °F 44.6 °F 82% 29.82 in 10.0 mi SSW 5.8 mph - N/A   Mostly Cloudy
9:53 PM 50.0 °F 44.1 °F 80% 29.83 in 10.0 mi SSW 5.8 mph - N/A   Overcast
10:32 PM 48.2 °F 44.6 °F 87% 29.82 in 10.0 mi SW 5.8 mph - N/A   Mostly Cloudy
10:53 PM 48.9 °F 43.0 °F 80% 29.81 in 10.0 mi SSW 5.8 mph - N/A   Mostly Cloudy
11:53 PM 48.0 °F 43.0 °F 83% 29.79 in 10.0 mi SSW 5.8 mph - N/A   Clear